This demonstration page uses our WeatherBlox Daily Observations layout. Learn more.

Hourly Observations for August 19, 2019

Temp ( °F °C ) Dew Point ( °F °C ) Humidity (%) Winds ( mph kmh ) Pressure ( in mb ) Visibility ( mi km ) Precip ( " mm )
12:15 am 00:15 Clear with Mist and Fog 64 17.7 64 17.7 100 100 N 3 6 29.94 1014 4 6.437376 0 0
12:35 am 00:35 Clear with Mist and Fog 64 17.6 64 17.6 100 100 N 3 6 29.94 1014 4 6.437376 0 0
12:55 am 00:55 Clear with Mist and Fog 63 17.1 63 17.1 100 100 NNW 3 6 29.97 1015 4 6.437376 0 0
1:15 am 01:15 Partly Cloudy with Mist and Fog 63 17.4 63 17.4 100 100 NNW 3 6 29.94 1014 5 8.04672 0 0
1:35 am 01:35 Cloudy 65 18.2 65 18.2 100 100 Calm 29.94 1014 7 11.265408 0 0
1:55 am 01:55 Mostly Cloudy with Mist and Fog 64 17.7 64 17.7 100 100 Calm 29.94 1014 5 8.04672 0 0
2:15 am 02:15 Cloudy with Mist and Fog 64 17.8 64 17.8 100 100 N 3 6 29.94 1014 5 8.04672 0 0
2:35 am 02:35 Cloudy with Mist and Fog 64 18 64 18 100 100 N 3 6 29.94 1014 5 8.04672 0 0
2:55 am 02:55 Cloudy 65 18.2 65 18.2 100 100 N 3 6 29.94 1014 7 11.265408 0 0
3:15 am 03:15 Cloudy 65 18.6 65 18.6 100 100 Calm 29.94 1014 7 11.265408 0 0
3:35 am 03:35 Cloudy 66 18.7 66 18.7 100 100 Calm 29.94 1014 7 11.265408 0 0
3:55 am 03:55 Mostly Cloudy 65 18.3 65 18.3 100 100 Calm 29.94 1014 7 11.265408 0 0
4:15 am 04:15 Partly Cloudy with Mist and Fog 65 18.1 65 18.1 100 100 Calm 29.94 1014 5 8.04672 0 0
4:35 am 04:35 Clear with Mist and Fog 63 17.3 63 17.3 100 100 NNW 3 6 30 1016 3 4.828032 0 0
4:55 am 04:55 Clear with Mist and Fog 64 17.6 64 17.6 100 100 Calm 29.97 1015 4 6.437376 0 0
5:15 am 05:15 Clear with Mist and Fog 63 17 63 17 100 100 NNW 3 6 30 1016 4 6.437376 0 0
5:35 am 05:35 Clear with Mist and Fog 62 16.9 62 16.9 100 100 Calm 30 1016 2.5 4.02336 0 0
5:55 am 05:55 Mostly Cloudy with Mist and Fog 62 16.9 62 16.9 100 100 NNW 3 6 30 1016 0.75 1.207008 0 0
6:15 am 06:15 Mostly Cloudy with Fog 62 16.6 62 16.6 100 100 Calm 30 1016 0.5 0.804672 0 0
6:35 am 06:35 Mostly Cloudy with Mist and Fog 62 16.6 62 16.6 100 100 NNW 3 6 30 1016 1 1.609344 0 0
6:55 am 06:55 Mostly Cloudy with Mist and Fog 61 16.3 61 16.3 100 100 Calm 30 1016 1 1.609344 0 0
7:15 am 07:15 Mostly Cloudy with Mist and Fog 62 16.6 62 16.6 100 100 NNW 3 6 30.03 1017 1 1.609344 0 0
7:35 am 07:35 Mostly Cloudy with Mist and Fog 64 17.5 64 17.5 100 100 Calm 30 1016 1.75 2.816352 0 0
7:55 am 07:55 Partly Cloudy with Mist and Fog 65 18.1 65 18.1 100 100 Calm 29.97 1015 3 4.828032 0 0
8:15 am 08:15 Partly Cloudy with Mist and Fog 66 19 66 19 100 100 Calm 29.97 1015 5 8.04672 0 0
8:35 am 08:35 Partly Cloudy 68 19.9 68 19.9 100 100 ESE 3 6 29.97 1015 7 11.265408 0 0
8:55 am 08:55 Sunny 69 20.8 69 20.4 98 98 E 3 6 29.97 1015 10 16.09344 0 0
9:15 am 09:15 Sunny 72 22 70 21 94 94 E 5 7 29.97 1015 10 16.09344 0 0
9:35 am 09:35 Partly Cloudy 73 22.6 70 21.1 91 91 ESE 6 9 29.97 1015 10 16.09344 0 0
9:55 am 09:55 Partly Cloudy 75 23.7 71 21.5 88 88 ESE 5 7 29.97 1015 10 16.09344 0 0
10:15 am 10:15 Partly Cloudy 75 24 71 21.5 86 86 SSE 7 11 30 1016 10 16.09344 0 0
10:35 am 10:35 Partly Cloudy 76 24.5 71 21.7 84 84 SE 8 13 30 1016 10 16.09344 0 0
10:55 am 10:55 Partly Cloudy 76 24.7 71 21.5 82 82 ESE 5 7 29.94 1014 10 16.09344 0 0
11:15 am 11:15 Sunny 78 25.4 71 21.7 80 80 ESE 7 11 29.94 1014 10 16.09344 0 0
11:35 am 11:35 Sunny 79 26.1 71 21.6 76 76 SE 7 11 29.94 1014 10 16.09344 0 0
11:55 am 11:55 Sunny 80 26.7 71 21.9 75 75 ESE 8 13 29.94 1014 10 16.09344 0 0
12:15 pm 12:15 Sunny 81 27.1 71 21.8 73 73 ESE 7 11 29.94 1014 10 16.09344 0 0
12:35 pm 12:35 Sunny 82 27.5 72 22.3 73 73 SSE 7 11 29.94 1014 10 16.09344 0 0
12:55 pm 12:55 Partly Cloudy 82 27.8 73 22.8 74 74 SSE 9 15 29.94 1014 10 16.09344 0 0
1:15 pm 13:15 Partly Cloudy 82 27.9 73 22.7 73 73 SE 9 15 29.94 1014 10 16.09344 0 0
1:35 pm 13:35 Partly Cloudy 83 28.5 74 23.4 74 74 SSE 7 11 29.91 1013 10 16.09344 0 0
1:55 pm 13:55 Partly Cloudy 84 29 74 23.3 71 71 SE 8 13 29.91 1013 10 16.09344 0 0
2:15 pm 14:15 Partly Cloudy 84 29.1 74 23.4 71 71 SE 8 13 29.91 1013 10 16.09344 0 0
2:35 pm 14:35 Sunny 85 29.5 74 23.1 68 68 SSE 8 13 29.91 1013 10 16.09344 0 0
2:55 pm 14:55 Partly Cloudy 86 29.9 74 23.3 68 68 SE 8 13 29.91 1013 10 16.09344 0 0
3:15 pm 15:15 Sunny 86 30 74 23.5 68 68 SE 10 17 29.88 1012 10 16.09344 0 0
3:35 pm 15:35 Partly Cloudy 85 29.4 75 23.8 72 72 SE 9 15 29.88 1012 10 16.09344 0 0
3:55 pm 15:55 Mostly Cloudy 87 30.5 75 23.9 68 68 SSE 8 13 29.88 1012 10 16.09344 0 0
4:15 pm 16:15 Partly Cloudy 87 30.3 74 23.6 67 67 ESE 8 13 29.88 1012 10 16.09344 0 0
4:35 pm 16:35 Partly Cloudy 87 30.4 75 24 69 69 SE 13 20 29.88 1012 10 16.09344 0 0
4:55 pm 16:55 Partly Cloudy 87 30.4 75 24 69 69 ESE 12 19 29.88 1012 10 16.09344 0 0
5:15 pm 17:15 Partly Cloudy 86 30 75 24 70 70 SE 12 19 29.88 1012 10 16.09344 0 0
5:35 pm 17:35 Partly Cloudy 87 30.3 75 23.8 68 68 SE 10 17 29.88 1012 10 16.09344 0 0
5:55 pm 17:55 Partly Cloudy 86 30 75 23.9 70 70 SE 9 15 29.88 1012 10 16.09344 0 0
6:15 pm 18:15 Sunny 84 29 75 23.9 74 74 SE 9 15 29.85 1011 10 16.09344 0 0
6:35 pm 18:35 Sunny 85 29.2 75 24.1 74 74 SE 9 15 29.85 1011 10 16.09344 0 0
6:55 pm 18:55 Partly Cloudy 84 29 76 24.3 76 76 SE 10 17 29.85 1011 10 16.09344 0 0
7:15 pm 19:15 Partly Cloudy 83 28.5 76 24.3 78 78 SE 9 15 29.85 1011 10 16.09344 0 0
7:35 pm 19:35 Sunny 83 28.3 76 24.5 80 80 SE 8 13 29.85 1011 10 16.09344 0 0
7:55 pm 19:55 Sunny 82 27.7 76 24.6 83 83 SE 7 11 29.85 1011 10 16.09344 0 0
8:15 pm 20:15 Sunny 81 27 76 24.5 86 86 SE 8 13 29.85 1011 10 16.09344 0 0
8:35 pm 20:35 Clear 80 26.7 76 24.5 88 88 SE 8 13 29.85 1011 10 16.09344 0 0
8:55 pm 20:55 Clear 79 26.3 76 24.5 90 90 SE 8 13 29.85 1011 10 16.09344 0 0
9:15 pm 21:15 Clear 79 26.1 76 24.5 91 91 SE 9 15 29.85 1011 10 16.09344 0 0
9:35 pm 21:35 Clear 79 26.2 76 24.5 90 90 SE 9 15 29.85 1011 10 16.09344 0 0
9:55 pm 21:55 Partly Cloudy 79 26.3 76 24.6 90 90 SSE 8 13 29.88 1012 10 16.09344 0 0
10:15 pm 22:15 Mostly Cloudy 80 26.5 76 24.6 89 89 SE 7 11 29.88 1012 10 16.09344 0 0
10:35 pm 22:35 Mostly Cloudy 79 26.1 76 24.6 91 91 SE 5 7 29.88 1012 10 16.09344 0 0
10:55 pm 22:55 Partly Cloudy 78 25.6 76 24.5 94 94 SE 5 7 29.88 1012 10 16.09344 0 0
11:15 pm 23:15 Clear 78 25.5 76 24.5 94 94 ESE 5 7 29.88 1012 10 16.09344 0 0
11:35 pm 23:35 Clear 78 25.3 76 24.5 95 95 ESE 5 7 29.88 1012 10 16.09344 0 0
11:55 pm 23:55 Clear 78 25.3 76 24.6 96 96 SE 6 9 29.88 1012 10 16.09344 0 0

Powered by AerisWeather